MET'MAP v2.0
soon released !

Expected late october,
this new version will be
more efficient, smarter,
and hosted on a brand new
server x3 powerfull...
...and still free !


Not compatible ?
Try the mobile version !

LOG IN : | Subscribe | Disclaimer | Who is Orbifly ? |
ICAO code :

TAF - LFOI Abbeville - 09 Jul 2020 16:50 UTC
Data Sources :     NOAA   


- Airport Elevation : 220 ft
- IATA code : XAB
- No reported NOTAMs.


LFOI - Abbeville

Latest METAR recorded : 0000/00/00 G :09 TAF ETNG 091400Z 0915/1006 26012G22KT 9999 SCT030 BKN060 BECMG 0917/0919 28007KT BECMG 0920/0922 23007KT BKN015 PROB40 TEMPO 1003/1006 3000 RADZ BKN007
NO TAF


MET'MAP, your aeronautical weather chart ! - Copyright ORBIFLY December 2007

Programming & Development : Alexandra Zaïnal
Co-Developer : Marc-Olivier Méhu
Technical & hardware support : Manuel Goepfert
Concept & Financing : Baudouin d'Aumeries